CW6261 Weather Reports


Display with metric or nautical units.
time (UTC)temp
F
wind
direction
speed
MPH
gust
MPH
rain 1hr
in
rain 24hr
in
rain mn
in
humidity
%
barometer
mb
20260509222702 87 156 0.0 7.0 0.00 0.00 0.00 48 100.8
20260509222202 87 101 0.0 5.0 0.00 0.00 0.00 48 100.8
20260509221702 87 221 3.0 7.0 0.00 0.00 0.00 48 100.8
20260509220702 87 189 3.0 6.0 0.00 0.00 0.00 47 100.8
20260509215703 87 142 1.0 3.0 0.00 0.00 0.00 46 100.7
20260509215202 87 211 3.0 3.0 0.00 0.00 0.00 48 100.7
20260509214702 88 191 2.0 5.0 0.00 0.00 0.00 48 100.7
20260509214202 89 203 3.0 6.0 0.00 0.00 0.00 46 100.7
20260509213702 88 340 1.0 2.0 0.00 0.00 0.00 46 100.7
20260509213202 87 113 0.0 1.0 0.00 0.00 0.00 49 100.7
20260509212702 88 236 2.0 3.0 0.00 0.00 0.00 48 100.8
20260509212203 87 144 1.0 2.0 0.00 0.00 0.00 49 100.8
20260509211202 87 49 1.0 2.0 0.00 0.00 0.00 49 100.8
20260509210702 86 263 1.0 2.0 0.00 0.00 0.00 51 100.8
20260509210202 86 332 0.0 2.0 0.00 0.00 0.00 51 100.8
20260509205702 86 278 1.0 1.0 0.00 0.00 0.00 51 100.8
20260509205202 86 160 0.0 3.0 0.00 0.00 0.00 51 100.8
20260509204702 85 280 2.0 4.0 0.00 0.00 0.00 52 100.8
20260509204202 84 148 1.0 3.0 0.00 0.00 0.00 52 100.8
20260509203702 85 185 1.0 5.0 0.00 0.00 0.00 51 100.8
20260509203202 84 133 0.0 4.0 0.00 0.00 0.00 47 100.8
20260509202202 84 186 3.0 5.0 0.00 0.00 0.00 44 100.9
20260509201202 83 129 2.0 4.0 0.00 0.00 0.00 40 100.9
20260509200702 82 212 0.0 5.0 0.00 0.00 0.00 42 100.9
20260509200203 82 204 2.0 16.0 0.00 0.00 0.00 41 100.9
20260509195702 83 159 1.0 8.0 0.00 0.00 0.00 51 100.9
20260509194202 84 161 1.0 2.0 0.00 0.00 0.00 56 100.9
20260509193202 84 157 1.0 4.0 0.00 0.00 0.00 57 100.9
20260509192702 84 95 2.0 4.0 0.00 0.00 0.00 57 100.9
20260509192202 84 66 0.0 4.0 0.00 0.00 0.00 59 100.9
20260509191702 84 265 1.0 4.0 0.00 0.00 0.00 59 100.9
20260509191202 83 47 2.0 4.0 0.00 0.00 0.00 63 100.9
20260509190702 82 38 3.0 4.0 0.00 0.00 0.00 64 100.9
20260509190202 83 47 3.0 7.0 0.00 0.00 0.00 66 100.9
20260509185202 82 81 0.0 4.0 0.00 0.00 0.00 65 100.9
20260509184702 82 43 2.0 4.0 0.00 0.00 0.00 65 100.9
20260509184202 83 27 2.0 6.0 0.00 0.00 0.00 67 100.9
20260509183702 83 333 1.0 4.0 0.00 0.00 0.00 61 101.0
20260509182703 84 293 3.0 4.0 0.00 0.00 0.00 59 101.0
20260509182202 84 306 0.0 4.0 0.00 0.00 0.00 58 101.0
20260509181702 85 250 2.0 7.0 0.00 0.00 0.00 59 101.0
20260509181202 85 272 2.0 4.0 0.00 0.00 0.00 59 101.0
20260509180703 84 326 1.0 5.0 0.00 0.00 0.00 61 101.0
20260509180202 84 251 3.0 5.0 0.00 0.00 0.00 62 101.0
20260509175702 83 35 1.0 3.0 0.00 0.00 0.00 65 101.0
20260509175202 82 323 1.0 4.0 0.00 0.00 0.00 66 101.0
20260509174702 82 275 3.0 5.0 0.00 0.00 0.00 67 101.0
20260509173702 82 358 1.0 4.0 0.00 0.00 0.00 67 101.0
20260509173202 82 247 2.0 3.0 0.00 0.00 0.00 67 101.0
20260509172202 81 273 4.0 4.0 0.00 0.00 0.00 70 101.0
20260509171703 81 247 2.0 6.0 0.00 0.00 0.00 69 101.0
20260509171203 83 268 2.0 4.0 0.00 0.00 0.00 67 101.0
20260509170702 83 275 1.0 3.0 0.00 0.00 0.00 67 101.0
20260509170202 82 282 2.0 3.0 0.00 0.00 0.00 68 101.0
20260509165702 81 322 2.0 5.0 0.00 0.00 0.00 70 101.0
20260509165202 82 240 4.0 4.0 0.00 0.00 0.00 70 101.0
20260509164703 81 273 4.0 5.0 0.00 0.00 0.00 72 101.0
20260509164203 80 261 2.0 4.0 0.00 0.00 0.00 73 101.0
20260509163202 80 279 1.0 6.0 0.00 0.00 0.00 72 101.0
20260509162702 81 258 3.0 8.0 0.00 0.00 0.00 72 101.0
20260509161702 79 248 2.0 5.0 0.00 0.00 0.00 75 101.0
20260509161202 78 205 1.0 2.0 0.00 0.00 0.00 78 101.0
20260509160702 78 203 4.0 4.0 0.00 0.00 0.00 78 101.0
20260509160203 78 238 3.0 5.0 0.00 0.00 0.00 79 101.0
20260509155702 77 202 2.0 4.0 0.00 0.00 0.00 82 101.0
20260509155202 77 250 4.0 7.0 0.00 0.00 0.00 82 101.0
20260509154202 78 197 6.0 9.0 0.00 0.00 0.00 80 101.0
20260509153703 78 236 2.0 7.0 0.00 0.00 0.00 80 101.0
20260509153202 78 260 4.0 6.0 0.00 0.00 0.00 79 101.0
20260509152702 78 197 4.0 6.0 0.00 0.00 0.00 80 101.0
20260509151701 77 247 3.0 6.0 0.00 0.00 0.00 81 101.0
20260509151202 77 234 4.0 6.0 0.00 0.00 0.00 81 101.0
20260509150202 78 220 3.0 5.0 0.00 0.00 0.00 81 101.0
20260509145702 78 217 3.0 5.0 0.00 0.00 0.00 80 101.0
20260509145202 78 192 4.0 11.0 0.00 0.00 0.00 81 101.0
20260509144702 78 241 3.0 7.0 0.00 0.00 0.00 80 101.0
20260509143702 77 224 2.0 6.0 0.00 0.00 0.00 80 101.0
20260509143202 77 214 3.0 10.0 0.00 0.00 0.00 81 101.0
20260509142702 77 212 3.0 8.0 0.00 0.00 0.00 81 101.0
20260509142202 77 188 3.0 5.0 0.00 0.00 0.00 81 101.0
20260509141703 76 175 2.0 5.0 0.00 0.00 0.00 83 101.0
20260509141202 76 190 2.0 3.0 0.00 0.00 0.00 84 101.0
20260509140702 75 181 2.0 7.0 0.00 0.00 0.00 85 101.0
20260509135702 75 194 5.0 6.0 0.00 0.00 0.00 86 101.0
20260509135202 74 259 2.0 5.0 0.00 0.00 0.00 88 101.0
20260509134703 74 234 2.0 7.0 0.00 0.00 0.00 88 101.0
20260509134203 74 251 2.0 6.0 0.00 0.00 0.00 90 101.0
20260509133702 73 177 3.0 6.0 0.00 0.00 0.00 91 101.0
20260509133202 73 141 3.0 9.0 0.00 0.00 0.00 93 101.0
20260509132702 72 225 2.0 8.0 0.00 0.00 0.00 95 101.0
20260509132202 72 211 4.0 8.0 0.00 0.00 0.00 96 101.0
20260509131702 71 218 3.0 10.0 0.00 0.00 0.00 97 101.0
20260509131203 71 205 3.0 9.0 0.00 0.00 0.00 98 101.0
20260509130702 71 224 3.0 4.0 0.00 0.00 0.00 98 101.0
20260509130202 71 204 1.0 5.0 0.00 0.00 0.00 99 101.0
20260509125702 71 240 1.0 4.0 0.00 0.00 0.00 99 101.0
20260509125202 71 259 1.0 3.0 0.00 0.00 0.00 99 101.0
20260509124702 71 193 2.0 5.0 0.00 0.00 0.00 99 101.0
20260509124202 71 243 1.0 2.0 0.00 0.00 0.00 99 101.0
20260509123202 70 30 2.0 4.0 0.00 0.00 0.00 99 101.0
20260509122202 70 95 0.0 1.0 0.00 0.00 0.00 99 101.0
20260509121702 70 299 2.0 2.0 0.00 0.00 0.00 99 101.0
20260509120702 70 314 1.0 4.0 0.00 0.00 0.00 99 101.0
20260509120202 71 12 2.0 3.0 0.00 0.00 0.00 99 101.0
20260509115702 70 72 1.0 3.0 0.00 0.00 0.00 99 101.0
20260509114702 70 354 1.0 2.0 0.00 0.00 0.00 98 101.0
20260509114202 70 208 0.0 3.0 0.00 0.00 0.00 99 101.0
20260509113202 71 135 1.0 2.0 0.00 0.00 0.00 98 101.0
20260509112702 71 145 1.0 3.0 0.00 0.00 0.00 99 101.0
20260509111702 71 18 2.0 4.0 0.00 0.00 0.00 98 101.0
20260509111202 71 150 1.0 3.0 0.00 0.00 0.00 98 101.0
20260509110702 71 50 2.0 2.0 0.00 0.00 0.00 98 101.0
20260509105702 71 292 1.0 3.0 0.00 0.00 0.00 98 101.0
20260509105202 71 288 1.0 2.0 0.00 0.00 0.00 98 101.0
20260509104702 71 6 0.0 3.0 0.00 0.00 0.00 98 101.0
20260509104202 71 63 2.0 4.0 0.00 0.00 0.00 98 101.0
20260509103702 71 246 0.0 3.0 0.00 0.00 0.00 98 101.0
20260509103203 71 40 1.0 3.0 0.00 0.00 0.00 98 101.0
20260509102702 71 83 2.0 2.0 0.00 0.00 0.00 98 101.0
20260509102202 71 28 1.0 4.0 0.00 0.00 0.00 98 101.0
20260509101202 71 161 2.0 3.0 0.00 0.00 0.00 98 101.0
20260509100702 71 358 2.0 6.0 0.00 0.00 0.00 98 101.0
20260509100203 71 356 4.0 5.0 0.00 0.00 0.00 98 101.0
20260509095703 71 40 2.0 3.0 0.00 0.00 0.00 98 101.0
20260509095202 71 342 0.0 2.0 0.00 0.00 0.00 98 100.9
20260509094702 71 132 0.0 5.0 0.00 0.00 0.00 98 100.9
20260509094202 71 169 0.0 3.0 0.00 0.00 0.00 98 100.9
20260509093202 71 113 2.0 3.0 0.00 0.00 0.00 98 101.0
20260509092702 71 93 0.0 3.0 0.00 0.00 0.00 98 101.0
20260509091702 71 182 4.0 4.0 0.00 0.00 0.00 97 101.0
20260509091202 71 268 1.0 4.0 0.00 0.00 0.00 97 101.0
20260509090703 71 312 1.0 5.0 0.00 0.00 0.00 97 100.9
20260509090202 71 180 2.0 2.0 0.00 0.00 0.00 97 100.9
20260509084702 71 115 1.0 3.0 0.00 0.00 0.00 97 100.9
20260509084202 71 135 0.0 1.0 0.00 0.00 0.00 96 100.9
20260509083702 71 89 2.0 3.0 0.00 0.00 0.00 97 100.9
20260509083202 71 238 2.0 3.0 0.00 0.00 0.00 96 101.0
20260509082703 71 114 0.0 4.0 0.00 0.00 0.00 96 101.0
20260509081702 71 206 1.0 2.0 0.00 0.00 0.00 96 101.0
20260509081202 71 22 0.0 1.0 0.00 0.00 0.00 96 101.0
20260509080702 71 135 0.0 0.0 0.00 0.00 0.00 96 101.0
20260509080201 71 135 0.0 1.0 0.00 0.00 0.00 96 101.0
20260509075702 71 129 0.0 0.0 0.00 0.00 0.00 95 101.0
20260509075202 71 135 0.0 0.0 0.00 0.00 0.00 95 101.0
20260509074703 72 115 0.0 1.0 0.00 0.00 0.00 95 101.0
20260509074202 72 98 0.0 1.0 0.00 0.00 0.00 95 101.0
20260509073702 72 116 0.0 1.0 0.00 0.00 0.00 94 101.0
20260509073202 72 44 0.0 2.0 0.00 0.00 0.00 94 101.0
20260509072702 72 153 0.0 2.0 0.00 0.00 0.00 94 101.0
20260509071702 72 185 0.0 2.0 0.00 0.00 0.00 93 101.0
20260509071202 72 224 0.0 0.0 0.00 0.00 0.00 93 101.0
20260509070702 72 246 0.0 1.0 0.00 0.00 0.00 93 101.0
20260509070202 72 152 0.0 1.0 0.00 0.00 0.00 93 101.0
20260509065702 72 227 1.0 1.0 0.00 0.00 0.00 93 101.0
20260509065202 72 192 2.0 3.0 0.00 0.00 0.00 93 101.0
20260509064702 72 171 0.0 0.0 0.00 0.00 0.00 93 101.0
20260509064202 72 190 1.0 2.0 0.00 0.00 0.00 93 101.0
20260509063702 72 204 2.0 4.0 0.00 0.00 0.00 92 101.0
20260509062702 72 177 3.0 5.0 0.00 0.00 0.00 92 101.0
20260509062202 72 223 1.0 3.0 0.00 0.00 0.00 92 101.0
20260509061702 72 180 2.0 2.0 0.00 0.00 0.00 92 101.0
20260509061203 72 123 1.0 3.0 0.00 0.00 0.00 92 101.0
20260509060702 73 238 1.0 4.0 0.00 0.00 0.00 91 101.0
20260509060202 73 190 1.0 1.0 0.00 0.00 0.00 91 101.0
20260509055702 73 159 1.0 4.0 0.00 0.00 0.00 91 101.0
20260509055202 73 122 0.0 6.0 0.00 0.00 0.00 91 101.0
20260509054702 73 117 1.0 9.0 0.00 0.00 0.00 91 101.0
20260509054202 73 202 4.0 6.0 0.00 0.00 0.00 91 101.0
20260509053702 73 174 0.0 5.0 0.00 0.00 0.00 91 101.0
20260509052704 73 145 2.0 3.0 0.00 0.00 0.00 91 101.0
20260509051702 73 156 1.0 6.0 0.00 0.00 0.00 90 100.9
20260509051202 73 167 1.0 6.0 0.00 0.00 0.00 89 100.9
20260509050704 73 190 5.0 5.0 0.00 0.00 0.00 89 101.0
20260509050203 73 168 2.0 2.0 0.00 0.00 0.00 89 101.0
20260509045702 73 158 1.0 2.0 0.00 0.00 0.00 89 101.0
20260509045202 73 141 0.0 2.0 0.00 0.00 0.00 89 101.0
20260509044702 73 160 1.0 2.0 0.00 0.00 0.00 88 101.0
20260509044202 73 180 4.0 4.0 0.00 0.00 0.00 88 101.0
20260509043702 73 194 2.0 5.0 0.00 0.00 0.00 88 101.0
20260509043202 73 192 2.0 4.0 0.00 0.00 0.00 88 101.0
20260509042702 73 146 1.0 2.0 0.00 0.00 0.00 88 101.0
20260509041703 73 194 2.0 4.0 0.00 0.00 0.00 88 101.0
20260509041202 73 147 0.0 4.0 0.00 0.00 0.00 88 101.0
20260509040202 73 117 0.0 3.0 0.00 0.00 0.00 88 100.9
20260509035702 73 149 0.0 3.0 0.00 0.00 0.00 88 100.9
20260509035202 73 195 0.0 0.0 0.00 0.00 0.00 88 100.9
20260509034702 73 188 1.0 2.0 0.00 0.00 0.00 88 100.9
20260509034202 73 224 0.0 4.0 0.00 0.00 0.00 88 100.9
20260509033702 72 198 3.0 3.0 0.00 0.00 0.00 88 100.9
20260509033203 72 197 2.0 3.0 0.00 0.00 0.00 89 101.0
20260509032702 72 190 1.0 3.0 0.00 0.00 0.00 89 101.0
20260509032202 72 185 2.0 3.0 0.00 0.00 0.00 88 100.9
20260509031703 73 170 0.0 4.0 0.00 0.00 0.00 88 100.9
20260509030702 73 209 1.0 2.0 0.00 0.00 0.00 88 100.9
20260509030202 73 218 1.0 3.0 0.00 0.00 0.00 87 100.9
20260509025702 73 224 0.0 3.0 0.00 0.00 0.00 87 100.9
20260509025203 73 187 0.0 1.0 0.00 0.00 0.00 87 100.9
20260509024702 73 101 0.0 3.0 0.00 0.00 0.00 87 100.9
20260509024202 73 190 0.0 1.0 0.00 0.00 0.00 87 100.9
20260509023702 73 104 0.0 0.0 0.00 0.00 0.00 86 100.9
20260509022702 74 104 0.0 0.0 0.00 0.00 0.00 86 100.9
20260509022202 74 124 0.0 2.0 0.00 0.00 0.00 85 100.9
20260509021202 74 103 1.0 2.0 0.00 0.00 0.00 84 100.9
20260509020701 74 41 1.0 3.0 0.00 0.00 0.00 84 100.9
20260509020202 74 187 3.0 3.0 0.00 0.00 0.00 84 100.9
20260509015702 75 135 0.0 3.0 0.00 0.00 0.00 83 100.9
20260509015202 75 135 0.0 2.0 0.00 0.00 0.00 83 100.9
20260509014702 75 144 0.0 5.0 0.00 0.00 0.00 83 100.9
20260509014201 75 155 1.0 4.0 0.00 0.00 0.00 82 100.9
20260509013702 75 160 1.0 2.0 0.00 0.00 0.00 82 100.9
20260509012702 76 168 2.0 5.0 0.00 0.00 0.00 80 100.9
20260509012203 76 198 2.0 4.0 0.00 0.00 0.00 80 100.9
20260509011703 76 183 3.0 5.0 0.00 0.00 0.00 79 100.8
20260509011202 76 191 0.0 3.0 0.00 0.00 0.00 79 100.8
20260509010702 76 112 1.0 5.0 0.00 0.00 0.00 79 100.8
20260509010202 76 333 0.0 2.0 0.00 0.00 0.00 79 100.8
20260509005702 76 129 0.0 3.0 0.00 0.00 0.00 79 100.8
20260509005203 76 44 0.0 1.0 0.00 0.00 0.00 79 100.8
20260509004704 76 115 1.0 2.0 0.00 0.00 0.00 79 100.8
20260509003202 76 89 0.0 1.0 0.00 0.00 0.00 78 100.8
20260509002702 76 113 1.0 2.0 0.00 0.00 0.00 78 100.8
20260509001702 76 122 0.0 4.0 0.00 0.00 0.00 78 100.8
20260509001202 77 182 1.0 1.0 0.00 0.00 0.00 77 100.8
20260509000702 77 242 0.0 1.0 0.00 0.00 0.00 77 100.8
20260509000204 77 304 0.0 1.0 0.00 0.00 0.00 77 100.8
20260508235702 77 202 1.0 5.0 0.00 0.00 0.00 77 100.8
20260508235202 77 119 0.0 1.0 0.00 0.00 0.00 77 100.8
20260508234702 77 180 2.0 4.0 0.00 0.00 0.00 77 100.8
20260508234202 77 142 1.0 2.0 0.00 0.00 0.00 77 100.8
20260508233702 77 207 2.0 2.0 0.00 0.00 0.00 77 100.8
20260508233202 77 185 0.0 2.0 0.00 0.00 0.00 77 100.8
20260508232702 76 244 1.0 2.0 0.00 0.00 0.00 77 100.8
20260508232202 76 134 1.0 1.0 0.00 0.00 0.00 77 100.8
20260508231703 77 119 1.0 4.0 0.00 0.00 0.00 77 100.8
20260508231202 76 89 0.0 2.0 0.00 0.00 0.00 77 100.8
20260508230702 76 113 1.0 2.0 0.00 0.00 0.00 77 100.8
20260508230203 77 124 2.0 2.0 0.00 0.00 0.00 77 100.8
20260508225702 76 118 0.0 2.0 0.00 0.00 0.00 77 100.8
20260508225202 76 119 0.0 1.0 0.00 0.00 0.00 76 100.8
20260508224702 77 200 1.0 3.0 0.00 0.00 0.00 76 100.8
20260508224203 77 113 1.0 2.0 0.00 0.00 0.00 76 100.8
20260508223702 77 180 1.0 3.0 0.00 0.00 0.00 75 100.8
20260508223202 77 126 1.0 3.0 0.00 0.00 0.00 75 100.9